{"data":{"norad_id":46538,"epoch":"2026-07-14T05:56:22.981344Z","epoch_age_seconds":5919021,"freshness":"OLD","line1":"1 46538U 20070G   26195.24748821  .09232335  12460-4  48285-3 0  9998","line2":"2 46538  53.0087 195.4622 0005955 286.5875  73.4518 16.42449518320439","mean_motion":16.42449518,"eccentricity":0.0005955,"inclination_deg":53.0087,"raan_deg":195.4622,"arg_perigee_deg":286.5875,"mean_anomaly_deg":73.4518,"bstar":0.00048285,"rev_number":32043,"period_min":87.673927522197,"perigee_km":155.40150941186,"apogee_km":163.18759038779,"semimajor_km":6537.4315498998,"source":"CELESTRAK","updated_at":"2026-07-14T09:01:19.766531Z"}}